Weather History for Albuquerque, NM

Change the Weather History Date:

Monday, October 7, 2013

  Actual Average Record
Temperature  
Mean Temperature 58 °F 61 °F  
Max Temperature 74 °F 73 °F 90 °F (1979)
Min Temperature 42 °F 50 °F 29 °F (1913)
Degree Days  
Heating Degree Days 7 5  
Month to date heating degree days 41 26  
Since 1 July heating degree days 65 52  
Cooling Degree Days 0 1  
Month to date cooling degree days 1 7  
Year to date cooling degree days 1565 1319  
Growing Degree Days 8 (Base 50)    
Moisture  
Dew Point 22 °F    
Average Humidity 27    
Maximum Humidity 40    
Minimum Humidity 13    
Precipitation  
Precipitation 0.00 in 0.03 in 1.00 in (2003)
Month to date precipitation 0.00 0.28  
Year to date precipitation 7.86 7.64  
Snow  
Snow 0.00 in - - ()
Month to date snowfall 0.0  
Since 1 July snowfall 0.0  
Since 1 September snowfall 0.0  
Snow Depth 0.00 in    
Sea Level Pressure  
Sea Level Pressure 30.11 in    
Wind  
Wind Speed 5 mph (ESE)    
Max Wind Speed 13 mph    
Max Gust Speed 16 mph    
Visibility 10 miles    
Events      
T = Trace of Precipitation, MM = Missing Value Source: NWS Daily Summary

Daily Weather History Graph

Daily Weather History Graph

Search for Another Location

Airport:

Trip Planner

Search our weather history database for the weather conditions in past years. The results will help you decide how hot, cold, wet, or windy it might be!

Date:

Astronomy

Oct. 07, 2013 Rise Set
Actual Time 7:06 AM MDT 6:41 PM MDT
Civil Twilight 6:40 AM MDT 7:06 PM MDT
Nautical Twilight 6:11 AM MDT 7:36 PM MDT
Astronomical Twilight 5:42 AM MDT 8:05 PM MDT
Moon 9:52 AM MDT (10/7) 8:36 PM MDT (10/7)
Length of Visible Light 12h 26m
Length of Day
11h 35m
Waxing Crescent, 9% of the Moon is Illuminated
Oct 7
Waxing Crescent
Oct 11
First Quarter
Oct 18
Full
Oct 26
Last Quarter
Nov 3
New

Hourly Weather History & Observations

Time (MDT) Temp. Windchill Dew Point Humidity Pressure Visibility Wind Dir Wind Speed Gust Speed Precip Events Conditions
12:52 AM 53.1 °F - 21.9 °F 30% 30.16 in 10.0 mi Calm Calm - N/A   Clear
1:52 AM 48.9 °F - 23.0 °F 36% 30.18 in 10.0 mi East 4.6 mph - N/A   Clear
2:52 AM 50.0 °F - 21.9 °F 33% 30.16 in 10.0 mi NE 3.5 mph - N/A   Clear
3:52 AM 50.0 °F - 21.9 °F 33% 30.14 in 10.0 mi North 8.1 mph - N/A   Clear
4:52 AM 48.0 °F - 21.9 °F 36% 30.16 in 10.0 mi NNE 5.8 mph - N/A   Clear
5:52 AM 46.9 °F - 21.0 °F 36% 30.17 in 10.0 mi NNE 4.6 mph - N/A   Clear
6:52 AM 46.0 °F 43.1 °F 21.0 °F 37% 30.19 in 10.0 mi North 5.8 mph - N/A   Clear
7:52 AM 45.0 °F 42.6 °F 21.9 °F 40% 30.22 in 10.0 mi North 4.6 mph - N/A   Clear
8:52 AM 50.0 °F - 23.0 °F 35% 30.23 in 10.0 mi North 3.5 mph - N/A   Clear
9:52 AM 54.0 °F - 23.0 °F 30% 30.22 in 10.0 mi Calm Calm - N/A   Clear
10:52 AM 59.0 °F - 23.0 °F 25% 30.21 in 10.0 mi Calm Calm - N/A   Clear
11:52 AM 63.0 °F - 25.0 °F 24% 30.18 in 10.0 mi Calm Calm - N/A   Partly Cloudy
12:52 PM 66.9 °F - 21.9 °F 18% 30.13 in 10.0 mi Variable 3.5 mph - N/A   Partly Cloudy
1:52 PM 70.0 °F - 21.0 °F 16% 30.09 in 10.0 mi SW 10.4 mph - N/A   Partly Cloudy
2:52 PM 71.1 °F - 21.0 °F 15% 30.05 in 10.0 mi South 8.1 mph - N/A   Partly Cloudy
3:52 PM 73.0 °F - 19.9 °F 14% 30.02 in 10.0 mi South 6.9 mph - N/A   Partly Cloudy
4:52 PM 73.0 °F - 21.0 °F 14% 30.00 in 10.0 mi South 9.2 mph - N/A   Partly Cloudy
5:52 PM 73.0 °F - 19.9 °F 14% 30.00 in 10.0 mi South 5.8 mph - N/A   Partly Cloudy
6:52 PM 70.0 °F - 21.0 °F 16% 30.01 in 10.0 mi SSW 5.8 mph - N/A   Partly Cloudy
7:52 PM 62.1 °F - 24.1 °F 23% 30.05 in 10.0 mi SE 5.8 mph - N/A   Partly Cloudy
8:52 PM 60.1 °F - 24.1 °F 25% 30.05 in 10.0 mi ESE 6.9 mph - N/A   Partly Cloudy
9:52 PM 60.1 °F - 24.1 °F 25% 30.04 in 10.0 mi ESE 6.9 mph - N/A   Partly Cloudy
10:52 PM 57.9 °F - 24.1 °F 27% 30.02 in 10.0 mi SE 5.8 mph - N/A   Partly Cloudy
11:52 PM 55.9 °F - 25.0 °F 30% 30.00 in 10.0 mi ESE 4.6 mph - N/A   Partly Cloudy